Location: Columbia
(38.9520°N, 92.3340°W)
Time: 12:03:11
(UTC-05:00)

CZ-2C R/B - Visible Passes

Search period start: 04 July 2015 00:00
Search period end: 14 July 2015 00:00
Orbit: 704 x 909 km, 98.1° (Epoch: 03 July)

Date Brightness Start Highest point End Pass type
(mag) Time Alt. Az. Time Alt. Az. Time Alt. Az.
04 Jul 4.8 02:06:21 18° ESE 02:09:23 29° ENE 02:14:06 10° N visible
04 Jul 3.8 03:47:26 31° SW 03:49:08 38° W 03:54:16 10° NNW visible
05 Jul 5.4 01:41:29 10° ESE 01:44:56 18° ENE 01:48:37 10° NNE visible
05 Jul 3.2 03:22:33 42° SSW 03:24:24 64° W 03:29:53 10° NNW visible
06 Jul 5.8 01:19:32 10° ENE 01:20:33 11° ENE 01:21:53 10° NE visible
06 Jul 3.3 02:57:41 41° SSE 02:59:45 79° ENE 03:05:15 10° N visible
06 Jul 5.0 04:38:46 12° WSW 04:40:15 13° W 04:42:28 10° WNW visible
07 Jul 4.0 02:32:49 30° SE 02:35:10 48° ENE 02:40:24 10° N visible
07 Jul 4.5 04:13:54 20° WSW 04:15:17 22° W 04:19:23 10° NW visible
08 Jul 4.8 02:07:57 20° ESE 02:10:38 29° ENE 02:15:19 10° N visible
08 Jul 3.9 03:49:02 32° SW 03:50:25 36° W 03:55:23 10° NNW visible
09 Jul 5.4 01:43:05 12° ESE 01:46:09 18° ENE 01:49:50 10° NNE visible
09 Jul 3.2 03:24:10 45° SSW 03:25:40 60° W 03:31:02 10° NNW visible
10 Jul 5.8 01:20:39 10° ENE 01:21:45 11° ENE 01:23:12 10° NE visible
10 Jul 3.2 02:59:18 46° SSE 03:01:00 83° ENE 03:06:24 10° N visible
10 Jul 5.1 04:40:23 11° W 04:41:33 12° W 04:43:15 10° WNW visible
11 Jul 3.9 02:34:26 34° SE 02:36:24 50° ENE 02:41:34 10° N visible
11 Jul 4.5 04:15:31 20° WSW 04:16:33 20° W 04:20:25 10° NW visible
12 Jul 4.7 02:09:35 22° ESE 02:11:52 30° ENE 02:16:28 10° N visible
12 Jul 3.9 03:50:39 32° WSW 03:51:41 34° W 03:56:29 10° NNW visible
13 Jul 5.3 01:44:43 13° E 01:47:23 19° ENE 01:51:01 10° NNE visible
13 Jul 3.2 03:25:48 48° SW 03:26:55 57° W 03:32:09 10° NNW visible
